CZ-6A DEB, 61387

Orbit data source: Space-Track

CZ-6A DEB, 61387 is space debris in LEO originally from a launch on Tue, 06 Aug 2024 UTC launched from the Taiyaun Space Center, China (TSC). Debris objects in space refer to the collection of defunct objects orbiting the Earth. Examples of debris include non-operational satellites, rocket bodies, and fragments generated from explosions, collisions, or faulty payload assembly.

Loading next visibility...
Identifier
61387, 2024-140XC
Orbit
LEO
Country
Flag of CNCN / PRC
Related business
Manufacturer
SAST
Mission
Spacecraft
Bus & Motor
Unknown
Mass
Unknown
Launch date (UTC)
2024-08-06 (2 years ago)
Launch vehicle
Unknown
Launch site
Taiyaun Space Center, China (TSC)
Object type
Payload
Rocket body
Debris
Shape & HBR
Unknown shape, 0.1 m
Radar Cross Section
Medium (>0.1 m² and <1 m²)

Expand to show TLE details & history
Last TLE update: 14 hours ago

TLE from 14 hours ago
0 CZ-6A DEB
1 61387U 24140XC  26171.25067884  .00001980  00000-0  82541-3 0  9994
2 61387  89.0062 274.4563 0043085 146.4047 213.9892 14.25420550 92912
Epoch: 2026-06-20T06:00Z
TLE epoch observation values (Epoch: 2026-06-20T06:00:58.651Z)
Latitude
-0.00002°
Longitude
-84.25607°
Altitude
835.855 km
Speed
7.422 km/s
True Right ascension
18h 17m 49s
True Declination
0° 00' 00"
Sunlit
Object was in full shadow at epoch
Visualization orbit readout
Latitude
Unknown
Longitude
Unknown
Altitude
Unknown
Speed
Unknown
Apparent Right ascension
Unknown
Apparent Declination
Unknown
Sunlit
N/A
Visualization observer readout
Local Sidereal Time
07:24:37
Azimuth
Unknown
Elevation
Unknown
Doppler factor
Unknown
Orbital elements
Apogee altitude
834.967 km
Perigee altitude
773.078 km
Semi-major axis
7,182.159 km
Eccentricity
0.00431
Inclination
89.0062°
RAAN
274.4563°
Arg. of periapsis
146.4047°
True anomaly
213.71442°
Mean anomaly
213.9892°
Eccentric anomaly
213.85169°
Mean motion
3.56583 °/min
Orbital period
100.96 mins
BSTAR
0.00082541
Loading maneuver chart data...
Computing Atmospheric mass density...
Loading historical data...
Loading historical data...
Loading historical data...
Loading historical data...
Loading historical data...
Loading historical data...
Loading historical data...

Documentation

Showing up to 5 results
|